COSMOS 1275 DEB, 42136

Orbit data source: Space-Track

COSMOS 1275 DEB, 42136 is space debris in LEO originally from a launch on Thu, 04 Jun 1981 UTC launched from the Plesetsk Missile And Space Complex (PKMTR). Debris objects in space refer to the collection of defunct objects orbiting the Earth. Examples of debris include non-operational satellites, rocket bodies, and fragments generated from explosions, collisions, or faulty payload assembly.

Loading next visibility...
Identifier
42136, 1981-053QY
Orbit
LEO
Country
Flag of CISCIS
Related business
Manufacturer
Unknown
Mission
Spacecraft
Bus & Motor
Unknown
Mass
Unknown
Launch date (UTC)
1981-06-04 (44 years ago)
Launch vehicle
Unknown
Launch site
Plesetsk Missile And Space Complex (PKMTR)
Object type
Payload
Rocket body
Debris
Shape & HBR
Unknown shape, 0.1 m
Radar Cross Section
Small (<0.1 m²)

Expand to show TLE details & history
Last TLE update: 2 days ago

TLE from 2 days ago
0 COSMOS 1275 DEB
1 42136U 81053QY  25300.38488588  .00002411  00000-0  16759-2 0  9993
2 42136  83.0225 166.5683 0063164 212.9680 146.7544 13.97484074604997
Epoch: 2025-10-27T09:14Z
TLE epoch observation values (Epoch: 2025-10-27T09:14:14.140Z)
Latitude
-0.00001°
Longitude
-7.97811°
Altitude
944.008 km
Speed
7.36 km/s
True Right ascension
11h 06m 16s
True Declination
0° 00' 00"
Sunlit
Object was in daylight at epoch
Visualization orbit readout
Latitude
Unknown
Longitude
Unknown
Altitude
Unknown
Speed
Unknown
Apparent Right ascension
Unknown
Apparent Declination
Unknown
Sunlit
N/A
Visualization observer readout
Local Sidereal Time
06:49:51
Azimuth
Unknown
Elevation
Unknown
Doppler factor
Unknown
Orbital elements
Apogee altitude
945.604 km
Perigee altitude
853.666 km
Semi-major axis
7,277.772 km
Eccentricity
0.00632
Inclination
83.0225°
RAAN
166.5683°
Arg. of periapsis
212.968°
True anomaly
147.1486°
Mean anomaly
146.7544°
Eccentric anomaly
146.95176°
Mean motion
3.49579 °/min
Orbital period
102.98 mins
BSTAR
0.0016759
Loading maneuver chart data...
Computing Atmospheric mass density...
Loading historical data...
Loading historical data...
Loading historical data...
Loading historical data...
Loading historical data...
Loading historical data...
Loading historical data...

Documentation

Showing up to 5 results
|